Regional Weather Roundup
Issued by NWS

Home | Current Version | Previous Version | Graphics & Text | Print | Product List | Glossary On
Versions: 1 2 3 4 5 6 7 8 9 10 11 12 13 14 15 16 17 18 19 20 21 22 23 24 25 26 27 28 29 30 31 32 33 34 35 36 37 38 39 40 41 42 43 44 45 46 47 48 49 50
000
ASUS45 KBOU 121010
RWRCO

WEATHER ROUNDUP FOR COLORADO
NATIONAL WEATHER SERVICE DENVER/BOULDER CO
400 AM MDT SAT JUL 12 2014

NOTE: "FAIR" INDICATES FEW OR NO CLOUDS BELOW 12000 FEET WITH NO
SIGNIFICANT WEATHER AND/OR OBSTRUCTIONS TO VISIBILITY.

COZ001>005-013-030-031-121100-
...NORTHWEST COLORADO...

CITY           SKY/WX    TMP DP  RH WIND       PRES   REMARKS
CRAIG          CLOUDY    56  56 100 E10       30.28F
HAYDEN         CLOUDY    57  54  88 SE9       30.33F
MEEKER         PTCLDY    61  54  77 CALM      30.27F
MOUNT WERNER   NOT AVBL
STEAMBOAT SPGS CLOUDY    55  55  97 SW5       30.36R
WALDEN         CLOUDY    54  52  94 S3        30.41S
$$

COZ006>008-011-121100-
...WEST CENTRAL VALLEYS...

CITY           SKY/WX    TMP DP  RH WIND       PRES   REMARKS
GRAND JUNCTION MOCLDY    71  52  50 E8        30.13S
MONTROSE       MOCLDY    69  53  56 SE6       30.24S
EAGLE          MOCLDY    59  59 100 SW3       30.33S
RIFLE          PTCLDY    60  58  92 E3        30.22R
DELTA          MOCLDY    68  57  66 NE7       30.19S
NUCLA          MOCLDY    72  46  40 CALM      30.27S
$$

COZ017>023-064>068-121100-
...SOUTHWEST COLORADO...

CITY           SKY/WX    TMP DP  RH WIND       PRES   REMARKS
DURANGO        CLOUDY    59  58  96 CALM      30.30F
CORTEZ         MOCLDY    65  55  70 E3        30.25F
PAGOSA SPRINGS CLOUDY    57  53  87 CALM      30.39F
TELLURIDE      MOCLDY    57  48  72 SE3       30.47F
WOLF CREEK PAS NOT AVBL
$$

COZ009-010-012-014-032>034-037-058>063-121100-
...CENTRAL COLORADO...

CITY           SKY/WX    TMP DP  RH WIND       PRES   REMARKS
ASPEN          MOCLDY    57  50  77 SE12      30.35F
BUENA VISTA    MOCLDY    57  48  71 NW8       30.38F
COPPER MTN     CLOUDY    46  43  87 S10       30.66F
BERTHOUD PASS  RAIN      39  27  60 W21G26    30.71F VSB 1
COTTONWOOD PAS CLOUDY    59  43  55 CALM      30.51F
GUNNISON       MOCLDY    55  50  82 N5        30.42S
KREMMLING      PTCLDY    55  52  88 CALM      30.39S
LEADVILLE      MOCLDY    47  45  93 S8        30.51F
MONARCH PASS   CLOUDY    50  39  66 W14       30.76F
SALIDA         CLOUDY   N/A N/A N/A W5        30.43S
SUNLIGHT       PTCLDY    50  45  81 CALM      30.58S
WILKERSON PASS PTCLDY    46  43  87 SW6       30.64S
$$

COZ069>075-121100-
...SAN LUIS VALLEY/SANGRE DE CRISTO MOUNTAINS...

CITY           SKY/WX    TMP DP  RH WIND       PRES   REMARKS
ALAMOSA        CLEAR     50  46  86 SE5       30.35S
LA VETA PASS   CLEAR     50  41  71 SW10G16   30.52S
SAGUACHE       NOT AVBL
$$

COZ035-036-038>040-121100-
...NORTHERN COLORADO FRONT RANGE...

CITY           SKY/WX    TMP DP  RH WIND       PRES   REMARKS
DENVER INTL AP PTCLDY    63  60  90 W7        30.21F
DMNS CITY PARK   N/A     64  60  90 SW3       30.20F
AURORA         PTCLDY    61  61 100 W7        30.23F
FRONT RANGE AP NOT AVBL
ERIE MUNI ARPT PTCLDY    63  60  91 S5        30.20F
BOULDER MUN AP PTCLDY    64  61  88 CALM      30.20F
CENTENNIAL     PTCLDY    62  59  90 W5        30.24F
BROOMFIELD     PTCLDY    61  59  94 W7        30.23F
FORT COLLINS   MOCLDY    63  59  88 CALM      30.20F
LONGMONT       MOCLDY    65  62  90 CALM      30.21F
$$

COZ041-046-047-076>085-087-088-121100-
...PIKES PEAK/PALMER DIVIDE AND SOUTHERN FOOTHILLS...

CITY           SKY/WX    TMP DP  RH WIND       PRES   REMARKS
COLO. SPRINGS  PTCLDY    63  56  78 N6        30.27R
A. F. ACADEMY  PTCLDY    61  59  93 N16       30.29R
ELLICOTT       NOT AVBL
FALCON         PTCLDY    59  57  92 N10       30.31S
FORT CARSON    PTCLDY    62  57  82 NW12      30.24R
LIMON          PTCLDY    63  61  93 N8        30.20S
MONUMENT HILL  CLOUDY    59  57  94 NW9       30.32R FOG
TRINIDAD       CLEAR     61  51  70 CALM      30.20S
$$

COZ042>045-048>051-090-091-121100-
...NORTHEAST COLORADO...

CITY           SKY/WX    TMP DP  RH WIND       PRES   REMARKS
GREELEY ARPT   NOT AVBL
AKRON          FOG       64  64 100 CALM      30.16F VSB 3/4
BURLINGTON     MOCLDY    66  61  84 N9        30.11R
WRAY           CLOUDY    70  69  97 NW5       30.10S
STERLING       CLOUDY    68  66  94 CALM      30.13R
HOLYOKE        CLOUDY    68  63  83 CALM      30.10R
FORT MORGAN    MOCLDY    64  62  91 CALM      30.16S
$$

COZ086-089-092>099-121100-
...SOUTHEAST COLORADO...

CITY           SKY/WX    TMP DP  RH WIND       PRES   REMARKS
PUEBLO         PTCLDY    66  63  90 CALM      30.15R
LA JUNTA       CLEAR     69  58  67 NW9       30.10S
LAMAR          CLEAR     72  54  53 SW9       30.04R
SPRINGFIELD      N/A     69  55  60 S14       30.12S
$$



USA.gov is the U.S. government's official web portal to all federal, state and local government web resources and services.